DW8482 Tortoreto Alto IT current weather conditions

sailwx.info

Wind from 182

Air temperature 12.2° C
Dewpoint 8.5° C

Last reported at 2016-Dec-03 12:52 UTC.
Time now 2016-Dec-03 13:39 UTC

Location: N 42°48' E 013°54'.
View on Google Maps.

See reports from other nearby stations

  
Tides and Currents Weather Stations Pressure Air Temp Water Temp Dewpoint Dewpoint Depression Visibility Wind Speed Wind Dir Waves Ship Positions
date/time (UTC)wind fromknots sea level pressurealtimeterstation pressurevisibilityair tempwater tempwave heightnotes
2016-Dec-03 12:52 182 12.2
2016-Dec-03 12:37 123 12.2
2016-Dec-03 12:32 167 12.2
2016-Dec-03 12:27 084 12.2
2016-Dec-03 12:12 076 12.2
2016-Dec-03 12:07 076 12.2
2016-Dec-03 11:57 068 12.8
2016-Dec-03 11:53 069 12.8
2016-Dec-03 11:47 068 12.8
2016-Dec-03 11:37 071 12.8
2016-Dec-03 11:32 071 12.8
2016-Dec-03 11:28 070 0 gusting 1 12.8
2016-Dec-03 11:22 071 12.2
2016-Dec-03 11:17 071 12.8
2016-Dec-03 11:12 071 1 gusting 2 12.8
2016-Dec-03 11:02 070 2 gusting 2 12.8
2016-Dec-03 10:57 070 2 gusting 2 12.8
2016-Dec-03 10:52 071 12.8
2016-Dec-03 10:47 070 12.8
2016-Dec-03 10:32 070 12.8
2016-Dec-03 10:27 070 12.8
2016-Dec-03 10:22 070 0 gusting 4 12.8
2016-Dec-03 10:17 083 13.3
2016-Dec-03 10:02 079 0 gusting 1 13.3
2016-Dec-03 09:57 079 13.3
2016-Dec-03 09:52 079 13.3
2016-Dec-03 09:42 078 1 gusting 2 13.3
2016-Dec-03 09:32 080 13.3
2016-Dec-03 09:27 080 13.3
2016-Dec-03 09:22 080 13.3
2016-Dec-03 09:12 080 12.2
2016-Dec-03 09:07 080 12.2
2016-Dec-03 09:02 078 12.2
2016-Dec-03 08:57 082 0 gusting 4 12.2
2016-Dec-03 08:42 074 12.2
2016-Dec-03 08:37 074 11.7
2016-Dec-03 08:32 074 1 gusting 2 11.7
2016-Dec-03 08:22 071 0 gusting 3 12.8
2016-Dec-03 08:17 068 1 gusting 2 12.8
2016-Dec-03 08:12 020 13.3
2016-Dec-03 08:07 020 12.8
2016-Dec-03 08:02 020 12.2
2016-Dec-03 07:52 020 11.1
2016-Dec-03 07:47 020 10.6
2016-Dec-03 07:42 020 10.6
2016-Dec-03 07:37 020 10.6
2016-Dec-03 07:27 019 10.6
2016-Dec-03 07:17 019 10.0
2016-Dec-03 07:12 019 10.0
2016-Dec-03 07:02 019 10.0
2016-Dec-03 06:57 019 10.0
2016-Dec-03 06:47 019 10.0
2016-Dec-03 06:27 019 9.4
2016-Dec-03 06:22 019 9.4
2016-Dec-03 06:12 019 10.0
2016-Dec-03 06:02 287 11.1
2016-Dec-03 05:47 287 10.6
2016-Dec-03 05:42 287 10.6
2016-Dec-03 05:27 287 10.6
2016-Dec-03 05:17 287 11.1
2016-Dec-03 05:12 287 11.1
2016-Dec-03 05:07 287 10.6
2016-Dec-03 04:52 287 10.6
2016-Dec-03 04:47 287 10.6
2016-Dec-03 04:42 287 10.6
2016-Dec-03 04:32 287 10.0
2016-Dec-03 04:22 287 10.0
2016-Dec-03 04:17 287 10.0
2016-Dec-03 04:12 287 10.0
2016-Dec-03 03:57 286 1 gusting 3 10.0
2016-Dec-03 03:47 289 3 gusting 4 10.6
2016-Dec-03 03:32 286 10.6
2016-Dec-03 03:22 286 11.7
2016-Dec-03 03:17 286 11.7
2016-Dec-03 03:12 286 11.7
2016-Dec-03 03:02 286 11.7
2016-Dec-03 02:57 292 11.1
2016-Dec-03 02:47 292 11.1
2016-Dec-03 02:32 292 1 gusting 3 11.1
2016-Dec-03 02:27 292 1 gusting 2 11.1
2016-Dec-03 02:12 292 11.1
2016-Dec-03 02:07 292 11.1
2016-Dec-03 02:02 292 11.1
2016-Dec-03 01:42 292 1 gusting 3 11.1
2016-Dec-03 01:17 295 10.6
2016-Dec-03 01:07 295 10.0
2016-Dec-03 00:42 295 10.6
2016-Dec-03 00:27 299 2 gusting 4 10.6
2016-Dec-03 00:17 294 10.0
2016-Dec-03 00:12 294 10.0
2016-Dec-03 00:07 294 10.0
2016-Dec-02 23:57 294 10.6
2016-Dec-02 23:37 298 3 gusting 5 10.6
2016-Dec-02 23:27 299 11.1
2016-Dec-02 23:22 293 11.1
2016-Dec-02 23:17 297 0 gusting 5 11.1
2016-Dec-02 23:12 296 0 gusting 6 11.1
2016-Dec-02 22:57 288 0 gusting 4 11.1
2016-Dec-02 22:47 294 1 gusting 5 11.1
2016-Dec-02 22:42 313 1 gusting 5 11.1
2016-Dec-02 22:37 306 5 gusting 6 11.1
2016-Dec-02 22:27 300 11.1
2016-Dec-02 22:22 287 11.1
2016-Dec-02 22:12 298 3 gusting 5 11.1
2016-Dec-02 22:07 294 2 gusting 4 11.1
2016-Dec-02 21:57 055 1 gusting 2 11.1
2016-Dec-02 21:52 060 11.1
2016-Dec-02 21:47 060 11.7
2016-Dec-02 21:42 349 2 gusting 2 11.7
2016-Dec-02 21:27 287 11.7
2016-Dec-02 21:22 287 0 gusting 1 11.7
2016-Dec-02 21:12 282 11.7
2016-Dec-02 21:07 282 11.1
2016-Dec-02 20:47 281 11.7
2016-Dec-02 20:37 277 11.7
2016-Dec-02 20:32 287 11.7
2016-Dec-02 20:27 296 11.7
2016-Dec-02 20:22 295 11.7
2016-Dec-02 20:17 287 1 gusting 4 11.7
2016-Dec-02 20:12 286 0 gusting 2 11.7
2016-Dec-02 20:07 281 0 gusting 2 11.7
2016-Dec-02 19:57 274 2 gusting 2 11.7
2016-Dec-02 19:52 285 11.7
2016-Dec-02 19:47 292 11.7
2016-Dec-02 19:42 285 1 gusting 3 11.7
2016-Dec-02 19:32 286 1 gusting 4 11.7
2016-Dec-02 19:27 142 11.7
2016-Dec-02 19:22 291 11.7
2016-Dec-02 19:17 278 11.7
2016-Dec-02 19:12 297 1 gusting 3 11.7
2016-Dec-02 18:52 292 11.7
2016-Dec-02 18:48 298 1 gusting 3 11.7
2016-Dec-02 18:32 281 2 gusting 2 11.7
2016-Dec-02 18:17 274 11.7
2016-Dec-02 18:02 278 11.7
2016-Dec-02 17:37 263 1 gusting 2 11.7
2016-Dec-02 17:32 288 0 gusting 3 11.7
2016-Dec-02 17:27 291 11.7
2016-Dec-02 17:12 284 11.7
2016-Dec-02 17:07 066 11.7
2016-Dec-02 16:52 078 11.7
2016-Dec-02 16:47 078 11.7
2016-Dec-02 16:42 078 11.7
2016-Dec-02 16:32 078 11.1
2016-Dec-02 16:22 078 11.1
2016-Dec-02 15:57 078 11.7
2016-Dec-02 15:52 078 11.7
2016-Dec-02 15:47 079 11.7
2016-Dec-02 15:42 078 2 gusting 2 11.7
2016-Dec-02 15:37 078 11.7
2016-Dec-02 15:27 078 12.2
2016-Dec-02 15:22 078 1 gusting 2 12.2
2016-Dec-02 15:17 086 1 gusting 4 12.2
2016-Dec-02 15:12 075 1 gusting 4 12.2
2016-Dec-02 14:57 076 2 gusting 3 11.7
2016-Dec-02 14:52 092 11.7
2016-Dec-02 14:42 095 11.7
2016-Dec-02 14:37 095 11.1
2016-Dec-02 14:32 114 11.1
2016-Dec-02 14:22 114 11.1
2016-Dec-02 14:17 114 11.7
2016-Dec-02 14:12 114 11.7
2016-Dec-02 14:07 114 11.7
2016-Dec-02 13:52 114 12.2
2016-Dec-02 13:37 114 12.2
2016-Dec-02 13:27 114 12.2
2016-Dec-02 13:22 114 12.2
2016-Dec-02 13:02 115 12.8
2016-Dec-02 12:42 078 13.3
2016-Dec-02 12:32 086 13.9
2016-Dec-02 12:27 081 13.3
2016-Dec-02 12:17 083 13.9
2016-Dec-02 12:12 092 2 gusting 2 13.9
2016-Dec-02 12:02 072 1 gusting 4 13.9
2016-Dec-02 11:58 074 13.9
2016-Dec-02 11:42 076 13.9
2016-Dec-02 11:32 076 13.9
2016-Dec-02 11:22 076 0 gusting 3 13.9
2016-Dec-02 11:07 081 13.3
2016-Dec-02 11:03 082 1 gusting 4 13.9
2016-Dec-02 10:52 071 13.9
2016-Dec-02 10:42 073 13.9
2016-Dec-02 10:32 072 13.3
2016-Dec-02 10:27 073 13.3
2016-Dec-02 10:22 070 1 gusting 2 13.9
2016-Dec-02 10:17 069 13.9
2016-Dec-02 10:12 069 13.9
2016-Dec-02 10:02 091 0 gusting 1 13.3
2016-Dec-02 09:57 093 13.3
2016-Dec-02 09:42 074 1 gusting 4 12.8
2016-Dec-02 09:37 076 12.8
2016-Dec-02 09:32 076 3 gusting 6 12.8
2016-Dec-02 09:27 069 1 gusting 3 12.8
2016-Dec-02 09:22 073 3 gusting 5 12.2
2016-Dec-02 09:17 071 0 gusting 5 12.2
2016-Dec-02 09:12 063 2 gusting 6 12.2
2016-Dec-02 09:02 079 5 gusting 6 12.2
2016-Dec-02 08:57 090 2 gusting 5 12.2
2016-Dec-02 08:52 083 12.8
2016-Dec-02 08:47 082 4 gusting 5 12.2
2016-Dec-02 08:42 074 2 gusting 3 12.8
2016-Dec-02 08:37 12.8
2016-Dec-02 08:32 323 12.8
2016-Dec-02 08:27 323 12.8
2016-Dec-02 08:22 323 12.8
2016-Dec-02 07:47 323 12.2
2016-Dec-02 07:37 296 11.7
2016-Dec-02 07:32 292 10.6
2016-Dec-02 07:17 292 10.6
2016-Dec-02 07:12 292 10.0
2016-Dec-02 07:07 292 10.0
2016-Dec-02 07:02 292 9.4
2016-Dec-02 06:52 292 9.4
2016-Dec-02 06:47 292 9.4
2016-Dec-02 06:27 292 9.4
2016-Dec-02 06:17 292 9.4
2016-Dec-02 06:12 292 10.0
2016-Dec-02 06:07 292 9.4
2016-Dec-02 06:02 292 9.4
2016-Dec-02 05:57 292 9.4
2016-Dec-02 05:47 292 9.4
2016-Dec-02 05:42 292 9.4
2016-Dec-02 05:37 292 8.9
2016-Dec-02 05:32 292 8.9
2016-Dec-02 05:27 292 8.9
2016-Dec-02 05:22 292 8.9
2016-Dec-02 05:17 292 8.9
2016-Dec-02 05:07 292 8.9
2016-Dec-02 05:02 292 8.9
2016-Dec-02 04:57 292 9.4
2016-Dec-02 04:52 292 8.9
2016-Dec-02 04:47 292 8.9
2016-Dec-02 04:32 293 8.9
2016-Dec-02 04:22 293 8.9
2016-Dec-02 04:12 293 8.9
2016-Dec-02 03:57 293 8.9
2016-Dec-02 03:47 293 8.9
2016-Dec-02 03:37 293 8.9
2016-Dec-02 03:32 293 8.9
2016-Dec-02 03:12 293 10.0
2016-Dec-02 03:07 293 10.0
2016-Dec-02 03:02 293 10.6
2016-Dec-02 02:52 293 10.6
2016-Dec-02 02:42 293 10.6
2016-Dec-02 02:27 293 10.0
2016-Dec-02 02:22 293 10.0
2016-Dec-02 02:12 293 10.6
2016-Dec-02 02:07 293 10.6
2016-Dec-02 02:02 293 10.6
2016-Dec-02 01:57 293 10.6
2016-Dec-02 01:47 293 10.0
2016-Dec-02 01:32 288 0 gusting 2 10.0
2016-Dec-02 01:27 288 9.4
2016-Dec-02 01:22 288 9.4
2016-Dec-02 01:17 288 9.4
2016-Dec-02 01:07 288 8.9
2016-Dec-02 01:02 288 8.9
2016-Dec-02 00:47 286 0 gusting 3 8.9
2016-Dec-02 00:37 281 2 gusting 5 8.3
2016-Dec-02 00:32 286 3 gusting 6 8.3
2016-Dec-02 00:27 292 5 gusting 6 8.3
2016-Dec-02 00:17 280 4 gusting 4 8.9
2016-Dec-01 23:57 285 8.3
2016-Dec-01 23:52 285 8.9
2016-Dec-01 23:47 285 8.9
2016-Dec-01 23:42 285 8.9
2016-Dec-01 23:37 285 9.4
2016-Dec-01 23:32 285 9.4
2016-Dec-01 23:27 285 2 gusting 2 9.4
2016-Dec-01 23:22 285 9.4
2016-Dec-01 23:17 285 9.4
2016-Dec-01 23:12 285 9.4
2016-Dec-01 22:57 285 8.9
2016-Dec-01 22:52 285 0 gusting 2 8.9
2016-Dec-01 22:47 287 2 gusting 4 8.9
2016-Dec-01 22:42 286 3 gusting 3 8.9
2016-Dec-01 22:37 286 1 gusting 2 8.9
2016-Dec-01 22:22 289 1 gusting 3 9.4
2016-Dec-01 22:12 281 9.4
2016-Dec-01 22:07 281 9.4
2016-Dec-01 22:02 281 8.9
2016-Dec-01 21:57 281 8.9
2016-Dec-01 21:52 281 8.9
2016-Dec-01 21:42 281 9.4
2016-Dec-01 21:27 281 10.0
2016-Dec-01 21:07 281 10.6
2016-Dec-01 21:02 281 10.6
2016-Dec-01 20:57 281 10.0
2016-Dec-01 20:52 281 10.0
2016-Dec-01 20:42 281 9.4
2016-Dec-01 20:37 282 8.9
2016-Dec-01 20:32 281 0 gusting 3 8.9
2016-Dec-01 20:27 282 2 gusting 2 9.4
2016-Dec-01 20:12 279 1 gusting 2 8.9
2016-Dec-01 20:07 281 1 gusting 3 8.9
2016-Dec-01 19:57 288 2 gusting 4 8.9
2016-Dec-01 19:52 286 3 gusting 4 8.3
2016-Dec-01 19:47 286 3 gusting 5 7.8
2016-Dec-01 19:37 289 6 gusting 6 7.8
2016-Dec-01 19:27 284 5 gusting 6 7.8
2016-Dec-01 19:22 281 3 gusting 5 7.2
2016-Dec-01 19:17 286 4 gusting 6 7.2
2016-Dec-01 19:12 278 5 gusting 6 7.2
2016-Dec-01 18:57 084 8.3
2016-Dec-01 18:52 084 8.3
2016-Dec-01 18:42 084 8.3
2016-Dec-01 18:22 074 1 gusting 2 8.9
2016-Dec-01 18:17 034 1 gusting 2 8.9
2016-Dec-01 18:12 027 8.9
2016-Dec-01 18:07 009 8.9
2016-Dec-01 18:02 009 8.9
2016-Dec-01 17:57 355 8.9
2016-Dec-01 17:52 355 8.9
2016-Dec-01 17:32 280 8.3
2016-Dec-01 17:28 280 8.3
2016-Dec-01 17:22 281 8.3
2016-Dec-01 17:12 280 8.9
2016-Dec-01 16:57 261 9.4
2016-Dec-01 16:52 263 9.4
2016-Dec-01 16:42 270 0 gusting 2 8.9
2016-Dec-01 16:37 300 8.9
2016-Dec-01 16:22 121 9.4
2016-Dec-01 16:12 109 9.4
2016-Dec-01 16:02 110 9.4
2016-Dec-01 15:57 084 0 gusting 2 9.4
2016-Dec-01 15:42 137 9.4
2016-Dec-01 15:32 129 1 gusting 2 9.4
2016-Dec-01 15:17 075 9.4
2016-Dec-01 15:07 077 9.4
2016-Dec-01 15:02 077 9.4
2016-Dec-01 14:47 078 9.4
2016-Dec-01 14:37 078 9.4
2016-Dec-01 14:32 080 9.4
2016-Dec-01 14:27 080 9.4
2016-Dec-01 14:22 080 10.0
2016-Dec-01 14:17 080 10.0
2016-Dec-01 14:12 080 10.0
2016-Dec-01 13:52 080 10.6
2016-Dec-01 13:47 080 10.6
2016-Dec-01 13:42 046 10.6
2016-Dec-01 13:37 046 10.6
2016-Dec-01 13:27 217 10.6
2016-Dec-01 13:07 118 10.6
2016-Dec-01 13:02 168 10.6